TimeMST,TemperatureF,Dew PointF,Humidity,Sea Level PressureIn,VisibilityMPH,Wind Direction,Wind SpeedMPH,Gust SpeedMPH,PrecipitationIn,Events,Conditions,WindDirDegrees,DateUTC
12:53 AM,21.0,17.1,85,29.74,10.0,West,6.9,-,N/A,,Clear,280,2012-12-12 07:53:00
1:53 AM,21.9,18.0,85,29.73,10.0,NNW,4.6,-,N/A,,Mostly Cloudy,330,2012-12-12 08:53:00
2:53 AM,21.9,18.0,85,29.71,10.0,East,3.5,-,N/A,,Scattered Clouds,90,2012-12-12 09:53:00
3:53 AM,21.0,17.1,85,29.72,10.0,NNW,4.6,-,N/A,,Mostly Cloudy,340,2012-12-12 10:53:00
4:53 AM,21.9,18.0,85,29.72,10.0,WSW,8.1,-,N/A,,Partly Cloudy,250,2012-12-12 11:53:00
5:53 AM,21.9,18.0,85,29.71,10.0,Calm,Calm,-,N/A,,Clear,0,2012-12-12 12:53:00
6:53 AM,19.9,17.1,89,29.72,10.0,Calm,Calm,-,N/A,,Clear,0,2012-12-12 13:53:00
7:53 AM,17.1,14.0,88,29.72,10.0,NNE,3.5,-,N/A,,Clear,30,2012-12-12 14:53:00
8:53 AM,19.9,16.0,85,29.72,10.0,NW,5.8,-,N/A,,Clear,310,2012-12-12 15:53:00
9:53 AM,25.0,18.0,75,29.70,10.0,Calm,Calm,-,N/A,,Clear,0,2012-12-12 16:53:00
10:53 AM,28.9,21.0,72,29.70,10.0,North,3.5,-,N/A,,Clear,10,2012-12-12 17:53:00
11:53 AM,30.9,23.0,72,29.67,10.0,Calm,Calm,-,N/A,,Clear,0,2012-12-12 18:53:00
12:53 PM,36.0,26.1,67,29.66,10.0,NNW,5.8,-,N/A,,Partly Cloudy,340,2012-12-12 19:53:00
1:53 PM,39.0,27.0,62,29.64,10.0,North,4.6,-,N/A,,Clear,350,2012-12-12 20:53:00
2:53 PM,41.0,28.0,60,29.66,10.0,NW,3.5,-,N/A,,Scattered Clouds,310,2012-12-12 21:53:00
3:53 PM,37.9,27.0,65,29.70,10.0,WNW,5.8,-,N/A,,Clear,290,2012-12-12 22:53:00
4:53 PM,34.0,26.1,73,29.74,10.0,Calm,Calm,-,N/A,,Clear,0,2012-12-12 23:53:00
5:53 PM,28.0,23.0,81,29.81,10.0,NNW,3.5,-,N/A,,Clear,330,2012-12-13 00:53:00
6:53 PM,34.0,25.0,70,29.83,10.0,NW,4.6,-,N/A,,Clear,320,2012-12-13 01:53:00
7:53 PM,30.0,23.0,75,29.89,10.0,WNW,11.5,-,N/A,,Partly Cloudy,300,2012-12-13 02:53:00
8:53 PM,27.0,21.9,81,29.91,10.0,West,12.7,-,N/A,,Clear,280,2012-12-13 03:53:00
9:53 PM,24.1,21.0,88,29.93,10.0,South,3.5,-,N/A,,Clear,190,2012-12-13 04:53:00
10:53 PM,21.9,19.9,92,29.95,10.0,SE,3.5,-,N/A,,Clear,130,2012-12-13 05:53:00
11:53 PM,23.0,19.9,88,29.97,10.0,SE,3.5,-,N/A,,Clear,130,2012-12-13 06:53:00